[[{"header":{"parameterUnit":"m.s-1","parameterCategory":1,"la1":30.2991,"la2":30.254,"lo1":-89.0895,"lo2":-89.0444,"dy":0.0017,"dx":0.0017,"nx":28,"ny":28,"refTime":"2024-08-17T03:00:00:Z","depth":0,"parameterNumber":2,"parameterNumberName":"U-component_of_WINDS"},"data":[0,0,0,0,0,0,0,0,0,0,0,0,0,0,0,0,0,0,0,0,0,0,0,0,0,0,0,0,0,0,0,0,0,0,0,0,0,0,0,0,0,0,0,0,0,0,0,0,0,0,0,0,0,0,0,0,0,0,-1.7883,-1.7882,0,-1.7843,-1.7843,-1.7842,-1.7791,-1.779,-1.7789,-1.7788,-1.7747,-1.7747,-1.7746,0,0,0,0,0,0,0,0,0,0,0,0,0,-1.7913,-1.7913,-1.7883,-1.7882,-1.7882,-1.7843,-1.7843,-1.7842,-1.7791,-1.779,-1.7789,-1.7788,-1.7747,-1.7747,-1.7746,0,0,0,0,0,0,0,0,0,0,0,0,0,-1.789,-1.7913,-1.7883,-1.7852,-1.7848,-1.7843,-1.7843,-1.7842,-1.7791,-1.779,-1.7789,-1.7787,-1.7747,-1.7747,-1.7746,-1.7768,0,0,-1.7745,-1.7745,0,0,0,0,0,0,0,0,-1.7891,-1.7889,-1.7857,-1.7854,-1.785,-1.7821,-1.7838,-1.7817,-1.7791,-1.7813,-1.7788,-1.7787,-1.7772,-1.777,-1.7765,-1.7766,-1.7765,-1.7745,-1.7744,-1.7744,-1.7744,0,0,0,0,0,0,0,-1.7893,-1.789,-1.7867,-1.7856,-1.7852,-1.7839,-1.7835,-1.7834,-1.78,-1.7811,-1.7807,-1.7803,-1.777,-1.7766,-1.7764,-1.7764,-1.7745,-1.7744,-1.7744,-1.7744,-1.7781,-1.7782,0,0,0,0,0,0,-1.7899,-1.7892,-1.7868,-1.7866,-1.7868,-1.784,-1.7834,-1.7831,-1.78,-1.7794,-1.7804,-1.7801,-1.7767,-1.7764,-1.7762,-1.7785,-1.7744,-1.7744,-1.7744,-1.778,-1.7781,-1.7783,0,0,0,0,0,0,-1.79,-1.7898,-1.787,-1.7878,-1.7873,-1.7841,-1.7837,-1.7831,-1.7826,-1.7795,-1.7789,-1.7806,-1.7766,-1.7763,-1.7767,-1.7783,-1.7744,-1.7743,-1.7778,-1.778,-1.7782,-1.7833,0,0,0,0,0,0,-1.7901,-1.7898,-1.7906,-1.7878,-1.7873,-1.7876,-1.7838,-1.7831,-1.7826,-1.7821,-1.7795,-1.7789,-1.7765,-1.7768,-1.7767,-1.7782,-1.7743,-1.7777,-1.7779,-1.7781,-1.7829,-1.7836,-1.7842,0,0,0,0,0,-1.7902,-1.7922,-1.7907,-1.7905,-1.7883,-1.7877,-1.7874,-1.7846,-1.7827,-1.7835,-1.7815,-1.779,-1.7782,-1.7769,-1.7767,-1.7782,-1.7775,-1.7778,-1.7781,-1.7827,-1.7835,-1.7842,0,0,0,0,0,0,-1.7953,-1.7918,-1.7901,-1.7912,-1.7898,-1.7868,-1.7877,-1.7855,-1.7846,-1.7842,-1.7807,-1.7802,-1.781,-1.7797,-1.7783,-1.7802,-1.7775,-1.7778,-1.781,-1.7818,-1.7824,-1.7827,-1.7742,0,0,0,0,0,-1.7965,-1.7964,-1.7933,-1.7946,-1.794,-1.791,-1.7907,-1.7886,-1.787,-1.7864,-1.7844,-1.7829,-1.7823,-1.7819,-1.7812,-1.7827,-1.782,-1.7837,-1.7843,-1.7848,-1.7851,-1.7857,-1.7864,-1.7792,-1.7792,-1.7792,0,0,-1.7991,-1.7972,-1.7973,-1.7956,-1.7943,-1.7942,-1.7905,-1.7906,-1.7905,-1.7864,-1.7866,-1.7851,-1.7832,-1.7842,-1.7845,-1.7831,-1.7869,-1.7852,-1.7856,-1.7856,-1.7861,-1.7868,-1.7874,-1.7794,-1.7794,-1.7793,0,0,-1.8037,-1.8023,-1.8032,-1.8019,-1.7999,-1.7979,-1.7982,-1.7955,-1.7944,-1.7946,-1.7915,-1.7913,-1.7904,-1.7891,-1.7884,-1.7925,-1.7902,-1.7924,-1.7956,-1.7963,-1.7969,-1.7973,-1.7988,-1.7993,-1.7927,-1.7927,-1.7927,0,-1.8072,-1.8069,-1.8039,-1.8041,-1.8035,-1.7998,-1.8006,-1.7996,-1.7975,-1.7971,-1.7955,-1.7942,-1.7927,-1.7933,-1.7943,-1.7939,-1.794,-1.7927,-1.797,-1.7975,-1.7979,-1.7992,-1.7998,-1.793,-1.7929,-1.7929,-1.7929,0,-1.8112,-1.8111,-1.812,-1.8101,-1.8095,-1.8101,-1.8072,-1.807,-1.805,-1.8031,-1.8034,-1.8014,-1.8002,-1.8002,-1.7983,-1.8006,-1.7997,-1.7977,-1.7949,-1.7989,-1.8001,-1.8006,-1.7934,-1.7933,-1.7932,-1.7931,0,0,-1.8188,-1.8153,-1.8157,-1.8147,-1.8123,-1.8121,-1.8125,-1.8113,-1.8112,-1.8099,-1.8101,-1.8094,-1.8074,-1.8066,-1.8045,-1.8051,-1.8084,-1.8029,-1.8028,-1.804,-1.8107,-1.8123,-1.8129,-1.8069,-1.807,-1.807,-1.8109,0,-1.8229,-1.8234,-1.8207,-1.8219,-1.8217,-1.8182,-1.8185,-1.8171,-1.8154,-1.8149,-1.813,-1.8126,-1.8101,-1.8095,-1.81,-1.808,-1.8097,-1.8076,-1.807,-1.807,-1.8075,-1.8135,-1.8152,-1.8189,-1.8113,-1.8114,-1.8115,0,-1.8278,-1.8267,-1.8279,-1.8254,-1.8252,-1.8255,-1.8242,-1.8239,-1.8222,-1.8209,-1.8199,-1.8175,-1.8177,-1.8151,-1.8152,-1.8139,-1.8134,-1.8124,-1.8125,-1.8123,-1.8094,-1.8134,-1.82,-1.8206,-1.8122,-1.8121,-1.8121,0,-1.8332,-1.8321,-1.8326,-1.8319,-1.829,-1.8293,-1.8281,-1.8262,-1.8257,-1.8246,-1.8242,-1.8231,-1.8225,-1.8217,-1.819,-1.8174,-1.8195,-1.8167,-1.8184,-1.8184,-1.8189,-1.8189,-1.8255,-1.8188,-1.8188,-1.8188,-1.8187,0,-1.838,-1.8389,-1.835,-1.8353,-1.8361,-1.833,-1.8339,-1.8324,-1.8307,-1.8307,-1.8276,-1.8276,-1.8241,-1.8237,-1.8216,-1.822,-1.8218,-1.8207,-1.8202,-1.821,-1.8211,-1.8206,-1.8203,-1.8189,-1.8189,-1.8188,-1.8188,0,-1.8442,-1.8416,-1.842,-1.8392,-1.8385,-1.8392,-1.8368,-1.837,-1.8351,-1.835,-1.8349,-1.8319,-1.8312,-1.8285,-1.8273,-1.8259,-1.8269,-1.8259,-1.8275,-1.8272,-1.829,-1.8288,-1.8354,-1.8361,-1.829,-1.8291,-1.8292,0,-1.8474,-1.848,-1.8452,-1.845,-1.8439,-1.8436,-1.843,-1.84,-1.8395,-1.8376,-1.838,-1.8371,-1.8362,-1.8354,-1.8331,-1.8321,-1.8309,-1.8333,-1.8307,-1.8315,-1.8309,-1.8309,-1.8309,-1.8338,-1.8339,-1.834,-1.8341,0,-1.8534,-1.8521,-1.8514,-1.8503,-1.8498,-1.8488,-1.8475,-1.8475,-1.8441,-1.8438,-1.8431,-1.8425,-1.8412,-1.8403,-1.8389,-1.8376,-1.8353,-1.8349,-1.8352,-1.836,-1.837,-1.8364,-1.829,-1.8347,-1.8347,-1.8346,-1.8346,-1.8346,-1.8581,-1.8585,-1.8566,-1.8559,-1.8547,-1.8537,-1.8537,-1.8518,-1.8512,-1.8499,-1.8482,-1.8477,-1.8459,-1.8438,-1.8427,-1.8423,-1.841,-1.8415,-1.8416,-1.8417,-1.8421,-1.8371,-1.842,-1.842,-1.842,-1.842,-1.8419,0,-1.8639,-1.8626,-1.862,-1.8604,-1.8599,-1.8578,-1.8563,-1.856,-1.8557,-1.8542,-1.8534,-1.8526,-1.8518,-1.8495,-1.8484,-1.8485,-1.8474,-1.8483,-1.8482,-1.848,-1.8434,-1.8432,-1.8492,-1.8492,-1.8492,-1.8492,-1.8492,-1.8492,-1.8669,-1.8673,-1.8658,-1.8655,-1.8641,-1.8637,-1.863,-1.862,-1.8608,-1.8601,-1.8594,-1.8579,-1.8561,-1.8548,-1.8539,-1.8533,-1.853,-1.8543,-1.8532,-1.849,-1.8483,-1.8476,-1.8474,-1.8542,-1.8543,-1.8578,-1.8579,-1.8579]},{"header":{"parameterUnit":"m.s-1","parameterCategory":1,"la1":30.2991,"la2":30.254,"lo1":-89.0895,"lo2":-89.0444,"dy":0.0017,"dx":0.0017,"nx":28,"ny":28,"refTime":"2024-08-17T03:00:00:Z","depth":0,"parameterNumber":3,"parameterNumberName":"V-component_of_WINDS"},"data":[0,0,0,0,0,0,0,0,0,0,0,0,0,0,0,0,0,0,0,0,0,0,0,0,0,0,0,0,0,0,0,0,0,0,0,0,0,0,0,0,0,0,0,0,0,0,0,0,0,0,0,0,0,0,0,0,0,0,2.4376,2.4375,0,2.4342,2.4341,2.4341,2.4302,2.4302,2.4301,2.4301,2.4265,2.4264,2.4264,0,0,0,0,0,0,0,0,0,0,0,0,0,2.4406,2.4406,2.4376,2.4375,2.4375,2.4342,2.4341,2.4341,2.4302,2.4302,2.4301,2.43,2.4265,2.4265,2.4264,0,0,0,0,0,0,0,0,0,0,0,0,0,2.4385,2.4406,2.4376,2.4352,2.4349,2.4342,2.4341,2.4341,2.4303,2.4302,2.4301,2.43,2.4265,2.4265,2.4264,2.4277,0,0,2.4262,2.4262,0,0,0,0,0,0,0,0,2.4386,2.4384,2.4356,2.4353,2.4351,2.4325,2.4339,2.4319,2.4303,2.432,2.4301,2.43,2.4286,2.4283,2.4279,2.4276,2.4274,2.4262,2.4262,2.4261,2.4261,0,0,0,0,0,0,0,2.4388,2.4385,2.4362,2.4355,2.4352,2.4342,2.4338,2.4335,2.4308,2.4319,2.4316,2.4312,2.4284,2.4279,2.4278,2.4273,2.4262,2.4261,2.4261,2.4261,2.4278,2.4279,0,0,0,0,0,0,2.4393,2.4386,2.4363,2.4361,2.4367,2.4342,2.4338,2.4334,2.4308,2.4303,2.4313,2.4311,2.4281,2.4278,2.4276,2.4289,2.4261,2.4261,2.426,2.4277,2.4278,2.4279,0,0,0,0,0,0,2.4394,2.4391,2.4365,2.4373,2.4369,2.4343,2.4339,2.4334,2.4329,2.4304,2.4299,2.4313,2.428,2.4277,2.4277,2.4287,2.426,2.426,2.4276,2.4278,2.4279,2.4316,0,0,0,0,0,0,2.4395,2.4392,2.4397,2.4373,2.4369,2.4367,2.434,2.4334,2.4329,2.4325,2.4303,2.4298,2.4279,2.4278,2.4276,2.4286,2.4259,2.4275,2.4277,2.4279,2.4313,2.4318,2.4322,0,0,0,0,0,2.4396,2.4408,2.4397,2.4395,2.4374,2.4367,2.4364,2.4343,2.433,2.4334,2.4318,2.4299,2.4287,2.4279,2.4276,2.4286,2.4275,2.4277,2.4278,2.4311,2.4317,2.4322,0,0,0,0,0,0,2.4433,2.4405,2.4392,2.4397,2.4385,2.4361,2.4366,2.4349,2.434,2.4337,2.431,2.4306,2.4308,2.4297,2.4289,2.4297,2.4278,2.4279,2.4304,2.4309,2.4313,2.4315,2.4259,0,0,0,0,0,2.4442,2.4439,2.4414,2.4421,2.4416,2.4392,2.4388,2.4372,2.4358,2.4353,2.4336,2.4323,2.4316,2.4312,2.4304,2.4312,2.4306,2.4317,2.4321,2.4325,2.4326,2.4328,2.4333,2.4286,2.4286,2.4286,0,0,2.446,2.4444,2.4444,2.4428,2.4417,2.4414,2.4388,2.4386,2.4383,2.4352,2.4351,2.4339,2.4322,2.4326,2.4326,2.4316,2.4338,2.4327,2.4331,2.433,2.4331,2.4335,2.4339,2.4287,2.4287,2.4286,0,0,2.4491,2.448,2.4484,2.4473,2.4456,2.444,2.4441,2.4419,2.441,2.4408,2.4385,2.4381,2.437,2.4359,2.4352,2.4379,2.4361,2.4377,2.4399,2.4402,2.4405,2.4409,2.4417,2.4421,2.4379,2.4379,2.4379,0,2.4516,2.4511,2.4488,2.4487,2.4481,2.4453,2.4457,2.4447,2.4429,2.4425,2.4414,2.4399,2.4386,2.4386,2.4393,2.4388,2.4388,2.4379,2.4407,2.441,2.4412,2.442,2.4424,2.4381,2.4381,2.4381,2.438,0,2.4541,2.4538,2.4543,2.4526,2.452,2.4522,2.4499,2.4496,2.4481,2.4466,2.4464,2.4448,2.4436,2.4435,2.442,2.4433,2.4427,2.4412,2.4392,2.4419,2.4426,2.4429,2.4384,2.4383,2.4383,2.4382,0,0,2.4594,2.4565,2.4567,2.4558,2.4538,2.4535,2.4535,2.4523,2.4521,2.4509,2.4508,2.4499,2.4485,2.4477,2.4461,2.4463,2.4484,2.4447,2.4447,2.4454,2.4496,2.4506,2.451,2.4473,2.4473,2.4474,2.4497,0,2.4621,2.4619,2.4599,2.4603,2.4599,2.4573,2.4573,2.456,2.4547,2.4541,2.4526,2.4519,2.4502,2.4497,2.4498,2.4481,2.4492,2.448,2.447,2.447,2.4474,2.4514,2.4525,2.4548,2.4499,2.45,2.45,0,2.4652,2.4642,2.4646,2.4625,2.4622,2.4623,2.461,2.4605,2.459,2.458,2.4571,2.4553,2.4551,2.4533,2.4529,2.4521,2.4516,2.4508,2.4508,2.4505,2.4486,2.4511,2.4555,2.4558,2.4504,2.4504,2.4504,0,2.4689,2.4676,2.4677,2.4671,2.4646,2.4647,2.4637,2.4621,2.4615,2.4604,2.46,2.4589,2.4583,2.4575,2.4554,2.4543,2.4552,2.4533,2.4542,2.4543,2.4545,2.4545,2.4587,2.4544,2.4543,2.4543,2.4543,0,2.472,2.4723,2.4693,2.4693,2.4696,2.4672,2.4675,2.4663,2.4648,2.4645,2.4622,2.462,2.4593,2.4587,2.4571,2.4569,2.4567,2.4558,2.4553,2.4559,2.456,2.4555,2.4553,2.4544,2.4544,2.4544,2.4544,0,2.4761,2.4741,2.474,2.4717,2.4712,2.4714,2.4694,2.4693,2.4678,2.4675,2.4672,2.4649,2.4641,2.4619,2.4605,2.4594,2.4597,2.4589,2.4603,2.4599,2.461,2.4609,2.4649,2.4653,2.4608,2.4609,2.4609,0,2.4782,2.4784,2.4761,2.4758,2.4748,2.4743,2.4737,2.4714,2.4709,2.4691,2.4692,2.4682,2.4673,2.4661,2.4642,2.4632,2.4623,2.4638,2.4621,2.4627,2.4622,2.4621,2.4621,2.4641,2.4642,2.4642,2.4643,0,2.482,2.4811,2.4803,2.4792,2.4786,2.4776,2.4765,2.4763,2.4737,2.4733,2.4724,2.4717,2.4703,2.4693,2.468,2.4669,2.4651,2.4648,2.465,2.4655,2.4662,2.4658,2.4611,2.4647,2.4647,2.4646,2.4646,2.4646,2.4851,2.4851,2.4835,2.4828,2.4817,2.4807,2.4805,2.479,2.4783,2.477,2.4756,2.4749,2.4733,2.4713,2.4703,2.4697,2.4688,2.469,2.4691,2.4691,2.4694,2.4664,2.4694,2.4694,2.4694,2.4694,2.4694,0,2.4888,2.4876,2.487,2.4855,2.4849,2.4834,2.482,2.4816,2.481,2.4797,2.4789,2.4779,2.4769,2.475,2.4738,2.4737,2.4728,2.4734,2.4734,2.4731,2.4703,2.4702,2.4741,2.4741,2.4741,2.4741,2.4741,2.4741,2.4906,2.4905,2.4893,2.4887,2.4875,2.4868,2.4862,2.4853,2.4842,2.4832,2.4824,2.4812,2.4796,2.4783,2.4773,2.4767,2.4764,2.4772,2.4764,2.4738,2.4733,2.4729,2.4728,2.4772,2.4772,2.4792,2.4793,2.4793]}]]